Hereford, TX

12:48 AM CDT on April 27, 2018 (GMT -0500)
Hereford Municipal

Weather History for KHRX - March, 2014

Change the Weather History Date:

Thursday, March 6, 2014

  Actual Average (KCVN) Record (KCVN)
Temperature  
Mean Temperature 46 °F -  
Max Temperature 70 °F 58 °F 82 °F (1925)
Min Temperature 22 °F 29 °F 6 °F (1948)
Degree Days  
Heating Degree Days 19    
Moisture  
Dew Point 22 °F    
Average Humidity 49    
Maximum Humidity 91    
Minimum Humidity 14    
Precipitation  
Precipitation 0.00 in - - ()
Sea Level Pressure  
Sea Level Pressure 30.06 in    
Wind  
Wind Speed 10 mph (SW)    
Max Wind Speed 25 mph    
Max Gust Speed 31 mph    
Visibility 10 miles    
Events      
Averages and records for this station are not official NWS values.
T = Trace of Precipitation, MM = Missing Value Source: NWS Daily Summary

Daily Weather History Graph

Daily Weather History Graph

Search for Another Location

Airport or City:

Astronomy

Mar. 06, 2014 Rise Set
Actual Time 7:12 AM CST 6:49 PM CST
Civil Twilight 6:46 AM CST 7:14 PM CST
Nautical Twilight 6:17 AM CST 7:44 PM CST
Astronomical Twilight 5:48 AM CST 8:13 PM CST
Moon 10:34 AM CST (3/6) No Moon Set
Length of Visible Light 12h 27m
Length of Day
11h 37m
Waxing Crescent, 32% of the Moon is Illuminated
Mar 6
Waxing Crescent
Mar 8
First Quarter
Mar 16
Full
Mar 23
Last Quarter
Mar 30
New

Hourly Weather History & Observations

Time (CST) Temp. Windchill Dew Point Humidity Pressure Visibility Wind Dir Wind Speed Gust Speed Precip Events Conditions
12:15 AM 24.3 °F 15.4 °F 21.9 °F 91% 30.24 in 10.0 mi West 8.1 mph - N/A   Clear
12:35 AM 25.2 °F 18.3 °F 22.6 °F 90% 30.24 in 10.0 mi WSW 5.8 mph - N/A   Clear
12:55 AM 26.1 °F 18.4 °F 23.5 °F 90% 30.23 in 10.0 mi WSW 6.9 mph - N/A   Clear
1:15 AM 25.3 °F 18.5 °F 22.8 °F 90% 30.23 in 10.0 mi WSW 5.8 mph - N/A   Clear
1:35 AM 25.9 °F 18.2 °F 23.4 °F 90% 30.23 in 10.0 mi WSW 6.9 mph - N/A   Clear
1:55 AM 25.0 °F 17.1 °F 22.5 °F 90% 30.23 in 10.0 mi WSW 6.9 mph - N/A   Clear
2:15 AM 25.5 °F 19.9 °F 22.8 °F 89% 30.23 in 10.0 mi WSW 4.6 mph - N/A   Clear
2:35 AM 25.7 °F 20.1 °F 23.2 °F 90% 30.22 in 10.0 mi SW 4.6 mph - N/A   Clear
2:55 AM 25.3 °F - 23.0 °F 91% 30.22 in 10.0 mi Calm Calm - N/A   Clear
3:15 AM 25.5 °F 21.3 °F 23.2 °F 91% 30.21 in 10.0 mi WSW 3.5 mph - N/A   Clear
3:30 AM 22.8 °F 16.7 °F 20.5 °F 91% 30.20 in 10.0 mi WSW 4.6 mph - N/A   Clear
3:55 AM 23.9 °F 15.8 °F 21.7 °F 91% 30.20 in 10.0 mi West 6.9 mph - N/A   Clear
4:15 AM 26.2 °F 17.8 °F 23.7 °F 90% 30.20 in 10.0 mi WSW 8.1 mph - N/A   Clear
4:35 AM 28.2 °F 20.2 °F 25.5 °F 90% 30.20 in 10.0 mi WSW 8.1 mph - N/A   Clear
4:55 AM 29.1 °F 21.3 °F 25.9 °F 88% 30.19 in 10.0 mi WSW 8.1 mph - N/A   Clear
5:15 AM 28.0 °F 20.0 °F 24.6 °F 87% 30.19 in 10.0 mi SW 8.1 mph - N/A   Clear
5:35 AM 27.1 °F 19.7 °F 24.1 °F 88% 30.18 in 10.0 mi SW 6.9 mph - N/A   Clear
5:55 AM 27.5 °F 21.1 °F 24.6 °F 89% 30.18 in 10.0 mi WSW 5.8 mph - N/A   Clear
6:15 AM 26.2 °F 20.7 °F 23.5 °F 90% 30.18 in 10.0 mi WSW 4.6 mph - N/A   Clear
6:35 AM 27.0 °F 19.5 °F 24.6 °F 91% 30.18 in 10.0 mi WSW 6.9 mph - N/A   Clear
6:55 AM 26.2 °F 17.8 °F 23.0 °F 88% 30.17 in 10.0 mi WSW 8.1 mph - N/A   Clear
7:15 AM 29.1 °F 21.3 °F 25.7 °F 87% 30.17 in 10.0 mi WSW 8.1 mph - N/A   Clear
7:35 AM 29.5 °F 21.8 °F 25.9 °F 86% 30.17 in 10.0 mi WSW 8.1 mph - N/A   Clear
7:55 AM 30.7 °F 24.9 °F 26.8 °F 85% 30.17 in 10.0 mi WSW 5.8 mph - N/A   Clear
8:10 AM 32.4 °F 25.3 °F 28.4 °F 85% 30.17 in 10.0 mi WSW 8.1 mph - N/A   Clear
8:35 AM 35.8 °F 30.1 °F 30.7 °F 82% 30.17 in 10.0 mi West 6.9 mph - N/A   Clear
8:55 AM 39.9 °F - 30.4 °F 69% 30.16 in 10.0 mi North - - N/A   Clear
9:15 AM 43.0 °F - 29.7 °F 59% 30.17 in 10.0 mi North - - N/A   Clear
9:35 AM 46.9 °F - 28.8 °F 49% 30.17 in 10.0 mi WSW 12.7 mph - N/A   Clear
9:55 AM 50.0 °F - 26.1 °F 39% 30.16 in 10.0 mi SW 15.0 mph - N/A   Clear
10:15 AM 52.5 °F - 22.1 °F 31% 30.16 in 10.0 mi SW 18.4 mph - N/A   Clear
10:35 AM 54.5 °F - 21.0 °F 27% 30.15 in 10.0 mi SW 19.6 mph 24.2 mph N/A   Clear
10:55 AM 56.3 °F - 16.9 °F 21% 30.14 in 10.0 mi SW 18.4 mph - N/A   Clear
11:15 AM 57.7 °F - 17.1 °F 20% 30.13 in 10.0 mi SW 20.7 mph 27.6 mph N/A   Clear
11:35 AM 59.2 °F - 15.4 °F 18% 30.12 in 10.0 mi SSW 19.6 mph 27.6 mph N/A   Clear
11:55 AM 60.6 °F - 14.9 °F 17% 30.11 in 10.0 mi SSW 25.3 mph 31.1 mph N/A   Clear
12:15 PM 61.7 °F - 14.7 °F 16% 30.10 in 10.0 mi SW 21.9 mph 27.6 mph N/A   Clear
12:35 PM 63.0 °F - 18.1 °F 18% 30.09 in 10.0 mi SW 18.4 mph 27.6 mph N/A   Clear
12:50 PM 63.0 °F - 20.7 °F 20% 30.07 in 10.0 mi SW 19.6 mph 28.8 mph N/A   Clear
1:15 PM 64.9 °F - 23.0 °F 20% 30.05 in 10.0 mi SW 19.6 mph 26.5 mph N/A   Clear
1:35 PM 65.7 °F - 23.2 °F 20% 30.03 in 10.0 mi SSW 19.6 mph 26.5 mph N/A   Clear
1:55 PM 67.1 °F - 20.8 °F 17% 30.01 in 10.0 mi SW 17.3 mph 20.7 mph N/A   Clear
2:15 PM 68.0 °F - 19.2 °F 16% 29.99 in 10.0 mi SW 13.8 mph 26.5 mph N/A   Clear
2:35 PM 68.4 °F - 18.3 °F 15% 29.98 in 10.0 mi SSW 17.3 mph 28.8 mph N/A   Clear
2:55 PM 69.3 °F - 17.8 °F 14% 29.96 in 10.0 mi SSW 17.3 mph 25.3 mph N/A   Clear
3:15 PM 69.1 °F - 17.1 °F 14% 29.95 in 10.0 mi SSW 16.1 mph 25.3 mph N/A   Clear
3:35 PM 69.4 °F - 17.6 °F 14% 29.94 in 10.0 mi SSW 19.6 mph 27.6 mph N/A   Clear
3:55 PM 70.2 °F - 18.3 °F 14% 29.93 in 10.0 mi South 19.6 mph 27.6 mph N/A   Clear
4:15 PM 69.6 °F - 17.6 °F 14% 29.91 in 10.0 mi SSW 17.3 mph 26.5 mph N/A   Clear
4:35 PM 70.7 °F - 18.3 °F 14% 29.91 in 10.0 mi SW 20.7 mph 26.5 mph N/A   Clear
4:55 PM 69.3 °F - 18.5 °F 14% 29.91 in 10.0 mi SW 18.4 mph 26.5 mph N/A   Clear
5:15 PM 68.9 °F - 19.2 °F 15% 29.91 in 10.0 mi SW 19.6 mph - N/A   Clear
5:35 PM 68.7 °F - 19.9 °F 16% 29.91 in 10.0 mi SSW 17.3 mph - N/A   Clear
5:55 PM 68.0 °F - 21.6 °F 17% 29.90 in 10.0 mi SSW 17.3 mph - N/A   Clear
6:15 PM 66.6 °F - 21.7 °F 18% 29.90 in 10.0 mi SSW 11.5 mph - N/A   Clear
6:35 PM 64.0 °F - 21.9 °F 20% 29.90 in 10.0 mi SSW 9.2 mph - N/A   Clear
6:55 PM 60.3 °F - 22.3 °F 23% 29.89 in 10.0 mi SSW 8.1 mph - N/A   Clear
7:15 PM 57.4 °F - 22.1 °F 26% 29.90 in 10.0 mi South 8.1 mph - N/A   Clear
7:35 PM 55.0 °F - 22.1 °F 28% 29.90 in 10.0 mi South 8.1 mph - N/A   Clear
7:55 PM 52.9 °F - 22.6 °F 31% 29.90 in 10.0 mi South 9.2 mph - N/A   Clear
8:15 PM 52.2 °F - 23.4 °F 33% 29.89 in 10.0 mi South 10.4 mph - N/A   Clear
8:35 PM 51.6 °F - 23.0 °F 33% 29.90 in 10.0 mi South 9.2 mph - N/A   Clear
8:55 PM 52.0 °F - 23.0 °F 32% 29.90 in 10.0 mi South 10.4 mph - N/A   Clear
9:15 PM 52.0 °F - 22.8 °F 32% 29.89 in 10.0 mi South 10.4 mph - N/A   Clear
9:35 PM 50.9 °F - 23.0 °F 34% 29.90 in 10.0 mi South 12.7 mph - N/A   Clear
9:55 PM 51.1 °F - 23.2 °F 34% 29.89 in 10.0 mi South 13.8 mph 18.4 mph N/A   Clear
10:15 PM 52.3 °F - 23.9 °F 33% 29.89 in 10.0 mi SSW 13.8 mph 19.6 mph N/A   Clear
10:35 PM 51.8 °F - 24.4 °F 34% 29.89 in 10.0 mi South 15.0 mph 19.6 mph N/A   Clear
10:55 PM 50.2 °F - 25.0 °F 37% 29.89 in 10.0 mi South 13.8 mph - N/A   Clear
11:15 PM 50.0 °F - 25.5 °F 39% 29.88 in 10.0 mi South 13.8 mph - N/A   Clear
11:35 PM 50.9 °F - 25.5 °F 37% 29.88 in 10.0 mi South 15.0 mph 21.9 mph N/A   Clear
11:55 PM 50.7 °F - 25.7 °F 38% 29.88 in 10.0 mi SSW 15.0 mph - N/A   Clear